This is the latest recevied weather packets stored in our database for station/object W4MJZ-1. If no packets are shown the sender has not sent any weather packets the latest 10 day(s).
| Time | Temp. | Humidity | Pressure | Rain* | Wind** | Luminosity | Snow |
|---|---|---|---|---|---|---|---|
| 1777942639 | 20° C | 38% | 1021.1 hPa | 0 mm | - | - | - |
| 1777942400 | 20° C | 38% | 1020.7 hPa | 0 mm | - | - | - |
| 1777942339 | 20° C | 38% | 1020.7 hPa | 0 mm | - | - | - |
| 1777942039 | 20° C | 37% | 1021.1 hPa | 0 mm | - | - | - |
| 1777941744 | 20.56° C | 36% | 1020.7 hPa | 0 mm | - | - | - |
| 1777941439 | 21.11° C | 34% | 1020.7 hPa | 0 mm | - | - | - |
| 1777941139 | 21.11° C | 33% | 1021.1 hPa | 0 mm | - | - | - |
| 1777940839 | 21.67° C | 32% | 1021.1 hPa | 0 mm | - | - | - |
| 1777940539 | 21.67° C | 31% | 1020.7 hPa | 0 mm | - | - | - |
| 1777940239 | 22.22° C | 31% | 1020.7 hPa | 0 mm | - | - | - |
| 1777939940 | 22.22° C | 31% | 1020.3 hPa | 0 mm | - | - | - |
| 1777939640 | 22.22° C | 31% | 1020.3 hPa | 0 mm | - | - | - |
| 1777939339 | 22.22° C | 31% | 1020.3 hPa | 0 mm | - | - | - |
| 1777939041 | 22.22° C | 30% | 1020.7 hPa | 0 mm | - | - | - |
| 1777938739 | 22.78° C | 28% | 1020.7 hPa | 0 mm | - | - | - |
| 1777938439 | 23.33° C | 26% | 1020.7 hPa | 0 mm | - | - | - |
| 1777938139 | 23.89° C | 24% | 1020.3 hPa | 0 mm | - | - | - |
| 1777937840 | 24.44° C | 24% | 1020 hPa | 0 mm | - | - | - |
| 1777937539 | 24.44° C | 22% | 1020 hPa | 0 mm | - | - | - |
| 1777937240 | 25° C | 21% | 1020.3 hPa | 0 mm | - | - | - |
| 1777936939 | 25° C | 20% | 1020 hPa | 0 mm | - | - | - |
| 1777936639 | 25.56° C | 18% | 1020.3 hPa | 0 mm | - | - | - |
| 1777936339 | 25° C | 18% | 1020.3 hPa | 0 mm | - | - | - |
| 1777936039 | 25.56° C | 18% | 1020 hPa | 0 mm | - | - | - |
| 1777935739 | 25.56° C | 18% | 1020.3 hPa | 0 mm | - | - | - |
* Rain latest hour (hover to see other rain measurements)
** Current wind speed in m/s (hover to see current wind gust speed)